Weather in Yegoryevka

Russia / Orenburg Oblast     53°27′41″N   53°54′00″E
temp.,
°C
wind,
m/s
gust,
m/s
humid.,
%
clouds,
%
prec.,
mm/h
press.,
hPa
HPBL,
m
3 march, wed
wed323:00−4sw81495100 2.0 1004646
02:00−3sw71296100 1.0 1003522
05:00−3sw5996100 1.9 1002348
08:00−5wsw2397100 0.4 100147
11:00−2wnw2394100 0.6 1002288
14:00−2w3493100 0.2 1002461
17:00−2wsw4693100 0.3 1002487
20:00−5w599596 0.2 1002277
4 march, thu
thu423:00−8w5109588 0.2 1004216
02:00−8wnw5119473 0.1 1004305
05:00−12wnw489563 0.2 1006134
08:00−13wsw479855 0.0 1007100
11:00−11sw6109676 0.1 1007300
14:00−8sw71293100 0.1 1006505
17:00−5sw91593100 0.4 1004813
20:00−5sw101794100 1.3 1001898
5 march, fri
fri523:00−1wsw111794100 2.4 10001087
02:00−1wsw91593100 0.5 1001938
05:00−1wsw71297100 1.6 1003642
08:00−2sw71297100 1.4 1003643
11:00−3sw71296100 3.3 1003619
14:00−1sw91496100 1.9 1001829
17:000sw81499100 3.8 1001864
20:000w81398100 2.6 1002717
6 march, sat
sat623:00−7nw499398 2.9 1007254
02:00−12nnw479565 0.0 101190
05:00−16n238745 0.0 101420
08:00−18e118466 0.0 101620
11:00−13se228383 0.0 101588
14:00−9sse348097 0.0 1014249
17:00−8se248599 0.0 1011261
20:00−10se1195100 0.1 100821
7 march, sun
sun723:00−9wnw2296100 0.6 100760
02:00−13wnw469692 0.1 1007117
05:00−15w479788 0.1 1009124
08:00−17wnw599788 0.0 1011181
11:00−16wnw589388 0.1 1012278
14:00−15w478919 0.0 1014376
17:00−15wsw469333 0.0 1014324
20:00−19ssw3410038 0.0 101453